{"data":{"norad_id":67931,"epoch":"2026-05-25T02:50:20.262048Z","epoch_age_seconds":61873,"freshness":"FRESH","line1":"1 67931U 26036AD  26145.11829007  .00007879  00000+0  29545-3 0  9997","line2":"2 67931  43.0021 173.3824 0001030 270.6348  89.4386 15.27587368 15411","mean_motion":15.27587368,"eccentricity":0.000103,"inclination_deg":43.0021,"raan_deg":173.3824,"arg_perigee_deg":270.6348,"mean_anomaly_deg":89.4386,"bstar":0.00029545,"rev_number":1541,"period_min":94.266294037592,"perigee_km":482.32033379024,"apogee_km":483.73373358118,"semimajor_km":6861.1640336857,"source":"CELESTRAK","updated_at":"2026-05-25T13:38:21.765738Z"}}